Weather History for Jackson, TN

Change the Weather History Date:

Sunday, November 17, 2013

  Actual Average Record
Temperature  
Mean Temperature 62 °F 50 °F  
Max Temperature 75 °F 61 °F 81 °F (1958)
Min Temperature 48 °F 38 °F 17 °F (1959)
Degree Days  
Heating Degree Days 3 16  
Month to date heating degree days 260 216  
Since 1 July heating degree days 465 430  
Cooling Degree Days 0 0  
Month to date cooling degree days 0 2  
Year to date cooling degree days 1592 1693  
Growing Degree Days 13 (Base 50)    
Moisture  
Dew Point 62 °F    
Average Humidity 79    
Maximum Humidity 96    
Minimum Humidity 61    
Precipitation  
Precipitation 0.84 in 0.17 in 1.69 in (1980)
Month to date precipitation 1.11 2.54  
Year to date precipitation 52.85 45.56  
Snow  
Snow 0.00 in 0.00 in T in (1951)
Month to date snowfall 0.0 0.0  
Since 1 July snowfall 0.0 0.0  
Since 1 September snowfall 0.0 0.0  
Snow Depth 0.00 in    
Sea Level Pressure  
Sea Level Pressure 29.81 in    
Wind  
Wind Speed 13 mph (SSW)    
Max Wind Speed 22 mph    
Max Gust Speed 32 mph    
Visibility 9 miles    
Events Rain , Thunderstorm    
T = Trace of Precipitation, MM = Missing Value Source: NWS Daily Summary

Daily Weather History Graph

Daily Weather History Graph

Search for Another Location

Airport:

Trip Planner

Search our weather history database for the weather conditions in past years. The results will help you decide how hot, cold, wet, or windy it might be!

Date:

Astronomy

Nov. 17, 2013 Rise Set
Actual Time 6:33 AM CST 4:47 PM CST
Civil Twilight 6:06 AM CST 5:14 PM CST
Nautical Twilight 5:35 AM CST 5:45 PM CST
Astronomical Twilight 5:05 AM CST 6:15 PM CST
Moon 5:04 PM CST (11/17) 6:27 AM CST (11/17)
Length of Visible Light 11h 08m
Length of Day
10h 13m
Full, 100% of the Moon is Illuminated
Nov 17
Full
Nov 25
Last Quarter
Dec 2
New
Dec 9
First Quarter
Dec 17
Full

Hourly Weather History & Observations

Time (CST) Temp. Dew Point Humidity Pressure Visibility Wind Dir Wind Speed Gust Speed Precip Events Conditions
12:53 AM 66.0 °F 61.0 °F 84% 29.87 in 10.0 mi South 16.1 mph 29.9 mph N/A   Overcast
1:53 AM 64.9 °F 62.1 °F 90% 29.86 in 7.0 mi South 19.6 mph 27.6 mph N/A   Overcast
2:09 AM 64.4 °F 62.6 °F 94% 29.86 in 9.0 mi South 16.1 mph 28.8 mph N/A   Overcast
2:24 AM 66.2 °F 62.6 °F 88% 29.85 in 10.0 mi South 15.0 mph 23.0 mph N/A   Overcast
2:53 AM 66.0 °F 62.1 °F 87% 29.83 in 10.0 mi South 18.4 mph 27.6 mph N/A   Overcast
3:53 AM 66.9 °F 62.1 °F 84% 29.83 in 10.0 mi South 18.4 mph 26.5 mph N/A   Overcast
4:53 AM 66.0 °F 63.0 °F 90% 29.82 in 10.0 mi South 15.0 mph 25.3 mph 0.03 in Rain Light Rain
5:53 AM 64.9 °F 63.0 °F 93% 29.81 in 2.5 mi South 15.0 mph 24.2 mph 0.29 in Rain Heavy Rain
6:06 AM 64.4 °F 62.6 °F 94% 29.82 in 3.0 mi South 11.5 mph 19.6 mph 0.11 in Rain Heavy Rain
6:29 AM 64.4 °F 62.6 °F 94% 29.80 in 4.0 mi South 12.7 mph 20.7 mph 0.20 in Rain Rain
6:53 AM 64.9 °F 63.0 °F 93% 29.79 in 10.0 mi South 13.8 mph 21.9 mph 0.24 in Rain Light Rain
7:12 AM 66.2 °F 62.6 °F 88% 29.79 in 9.0 mi South 11.5 mph 23.0 mph 0.00 in Rain Light Rain
7:28 AM 66.2 °F 62.6 °F 88% 29.80 in 3.0 mi South 11.5 mph 28.8 mph 0.05 in Rain , Thunderstorm Rain
7:43 AM 66.2 °F 62.6 °F 88% 29.78 in 10.0 mi South 11.5 mph 25.3 mph 0.06 in Rain Light Rain
7:53 AM 66.0 °F 63.0 °F 90% 29.78 in 10.0 mi South 16.1 mph 23.0 mph 0.06 in   Overcast
8:51 AM 66.2 °F 64.4 °F 94% 29.80 in 10.0 mi South 13.8 mph 23.0 mph 0.00 in Rain Light Rain
8:53 AM 66.9 °F 64.0 °F 90% 29.79 in 10.0 mi South 13.8 mph 23.0 mph 0.00 in   Overcast
9:01 AM 66.2 °F 64.4 °F 94% 29.80 in 6.0 mi South 13.8 mph 20.7 mph 0.02 in Rain Rain
9:14 AM 66.2 °F 64.4 °F 94% 29.80 in 10.0 mi South 12.7 mph 20.7 mph 0.02 in Rain Light Rain
9:25 AM 66.2 °F 64.4 °F 94% 29.80 in 9.0 mi South 15.0 mph 29.9 mph 0.02 in Rain Light Rain
9:33 AM 66.2 °F 64.4 °F 94% 29.79 in 10.0 mi South 13.8 mph - 0.02 in Rain Light Rain
9:42 AM 66.2 °F 64.4 °F 94% 29.79 in 10.0 mi South 13.8 mph 23.0 mph 0.02 in Rain Light Rain
9:53 AM 66.9 °F 64.0 °F 90% 29.79 in 10.0 mi South 15.0 mph 20.7 mph 0.02 in Rain Light Rain
10:53 AM 69.1 °F 64.9 °F 87% 29.77 in 10.0 mi SSW 17.3 mph 24.2 mph 0.00 in   Overcast
11:37 AM 69.8 °F 66.2 °F 88% 29.75 in 10.0 mi SSW 16.1 mph 21.9 mph N/A   Overcast
11:53 AM 70.0 °F 66.0 °F 87% 29.74 in 10.0 mi SSW 16.1 mph 24.2 mph N/A   Overcast
12:12 PM 69.8 °F 66.2 °F 88% 29.75 in 10.0 mi SSW 15.0 mph - N/A   Overcast
12:53 PM 71.1 °F 66.9 °F 87% 29.72 in 10.0 mi SSW 15.0 mph 23.0 mph 0.00 in   Overcast
1:53 PM 72.0 °F 66.9 °F 84% 29.71 in 10.0 mi SSW 11.5 mph - N/A   Overcast
2:53 PM 75.0 °F 66.9 °F 76% 29.70 in 10.0 mi SW 15.0 mph 28.8 mph 0.01 in   Mostly Cloudy
3:26 PM 75.2 °F 66.2 °F 73% 29.71 in 10.0 mi SSW 15.0 mph 25.3 mph N/A   Mostly Cloudy
3:53 PM 73.9 °F 66.9 °F 79% 29.71 in 10.0 mi SSW 16.1 mph 23.0 mph N/A   Mostly Cloudy
4:37 PM 73.4 °F 66.2 °F 78% 29.74 in 10.0 mi SW 12.7 mph - N/A   Mostly Cloudy
4:53 PM 73.0 °F 66.9 °F 81% 29.74 in 10.0 mi SW 15.0 mph 20.7 mph N/A   Scattered Clouds
5:53 PM 72.0 °F 66.9 °F 84% 29.75 in 10.0 mi SSW 17.3 mph 23.0 mph N/A   Clear
6:43 PM 71.6 °F 62.6 °F 73% 29.82 in 10.0 mi NW 19.6 mph 25.3 mph N/A   Mostly Cloudy
6:53 PM 69.1 °F 55.9 °F 63% 29.82 in 10.0 mi NNW 15.0 mph 24.2 mph N/A   Mostly Cloudy
7:00 PM 66.2 °F 55.4 °F 68% 29.84 in 10.0 mi NNW 17.3 mph 23.0 mph N/A   Overcast
7:53 PM 60.1 °F 57.0 °F 90% 29.86 in 10.0 mi SW 5.8 mph - 0.19 in   Overcast
8:53 PM 59.0 °F 55.9 °F 90% 29.90 in 10.0 mi SW 5.8 mph - N/A   Clear
9:53 PM 52.0 °F 50.0 °F 93% 29.93 in 1.5 mi Calm Calm - N/A   Partly Cloudy
10:03 PM 55.4 °F 50.0 °F 82% 29.94 in 4.0 mi Calm Calm - N/A   Haze
10:53 PM 51.1 °F 46.9 °F 86% 29.96 in 10.0 mi WSW 3.5 mph - N/A   Clear
11:53 PM 50.0 °F 46.0 °F 86% 29.98 in 10.0 mi SSW 3.5 mph - N/A   Partly Cloudy